Regional Weather Roundup
Issued by NWS Midland/Odessa, TX

Skip options and go directly to product.
Home | Oldest Version | Next Version | Current Version | All | Text Only | Save Text | Print | Product List | Glossary On

Skip product version selection by date and time.   
006
ASUS44 KMAF 201101
RWRMAF
MIDLAND AREA WEATHER ROUNDUP
NATIONAL WEATHER SERVICE MIDLAND TX
500 AM CST SAT DEC 20 2014

...IN SOUTHWEST TEXAS AND SOUTHEAST NEW MEXICO...

CITY           SKY/WX    TMP DP  RH WIND       PRES   REMARKS
ALPINE         CLEAR     34  27  76 SW12      30.19F WCI  25
ANDREWS        FOG       37  37 100 S6        30.14F VSB 1/4 WCI  32
ARTESIA        CLEAR     28  25  86 W7        30.12F WCI  21
BIG SPRING     CLOUDY    33  31  94 CALM      30.19S VSB 1/2
CARLSBAD       CLEAR     29  23  78 NW8       30.10F WCI  21
DRYDEN           N/A     47  46  97 CALM      30.14S
FORT STOCKTON  CLEAR     39  32  76 S8        30.13S WCI  33
GUAD PASS      NOT AVBL
HOBBS          FOG       36  36 100 E3        30.13F VSB 1/4
MARFA          CLEAR     21  18  86 NE6       30.16F WCI  14
MIDLAND AIRPK  CLOUDY    34  34 100 CALM      30.16F FOG
MIDLAND INTL   FOG       37  36  96 SE3       30.14F VSB 1/4
ODESSA         FOG       37  35  92 SE5       30.14F VSB 1/4 WCI  33
PECOS          CLEAR     33  31  92 NE3       30.13F
PRESIDIO       FAIR      41  30  64 N7        30.13F WCI  37
SEMINOLE       FOG       37  37 100 CALM      30.16F VSB 1/4
SNYDER         CLOUDY    40  36  86 CALM      30.18S
WINK           CLEAR     29  26  89 N6        30.11F WCI  23
$$
...OTHER STATIONS IN TEXAS...

CITY           SKY/WX    TMP DP  RH WIND       PRES   REMARKS
ABILENE        CLOUDY    45  38  76 CALM      30.19S
AMARILLO       CLOUDY    34  33  96 S14       30.10F FOG     WCI  25
AUSTIN         CLOUDY    50  44  80 N15       30.17F
BROWNSVILLE    CLOUDY    60  58  92 N10       30.10S
CORPUS CHRISTI CLOUDY    53  49  86 N14       30.16S
DALLAS FTW     CLOUDY    46  42  86 N9        30.20F
DEL RIO        MOCLDY    52  48  86 S7        30.15S
EL PASO        MOCLDY    33  26  75 CALM      30.13F
HOUSTON INT    CLOUDY    51  48  89 N13       30.14S
LUBBOCK        CLOUDY    37  35  92 SW13      30.13F FOG     WCI  29
SAN ANGELO     CLOUDY    43  40  89 N5        30.16F
SAN ANTONIO    CLOUDY    48  43  82 N14       30.18R
WACO           CLOUDY    48  45  89 NW7       30.21S
WICHITA FALLS  NOT AVBL
$$
...OTHER LOCATIONS IN NEW MEXICO...

CITY           SKY/WX    TMP DP  RH WIND       PRES   REMARKS
ALAMAGORDO     PTCLDY    27  23  86 CALM      30.15S
ALBUQUERQUE    PTCLDY    32  23  69 N6        30.18S WCI  26
CANNON AFB     FOG       25  25 100 E1        30.09F VSB 3/4
CLOVIS         CLOUDY    27  25  93 CALM      30.08F VSB 1/2
HOLLOMAN AFB   PTCLDY    26  23  89 NE5       30.14F WCI  20
ROSWELL        PTCLDY    26  19  74 CALM      30.12S
RUIDOSO        PTCLDY    28  19  69 W9        30.12F WCI  20
SANTA FE       PTCLDY    24  17  74 N12       30.13F WCI  13
TRUTH OR CONSE CLEAR     32  22  66 N7        30.16S WCI  26
TUCUMCARI      PTCLDY    20  16  84 CALM      30.06F
$$

USA.gov is the U.S. government's official web portal to all federal, state and local government web resources and services.